METEOR 2-6 DEB, 29200

Orbit data source: Space-Track

METEOR 2-6 DEB, 29200 is space debris in LEO originally from a launch on Tue, 09 Sep 1980 UTC launched from the Plesetsk Missile And Space Complex (PKMTR). Debris objects in space refer to the collection of defunct objects orbiting the Earth. Examples of debris include non-operational satellites, rocket bodies, and fragments generated from explosions, collisions, or faulty payload assembly.

Loading next visibility...
METEOR 2-6 DEB details
Identifier
29200, 1980-073F
Orbit
LEO
Last TLE update9 months ago
Origin
Flag of CISKVR (CIS)
ManufacturerUnknown
MissionSpacecraft
Bus & MotorUnknown
MassUnknown
Launch date (UTC)
1980-09-09 (44 years ago)
Launch vehicleUnknown
Launch site
Plesetsk Missile And Space Complex (PKMTR)
Object type
Payload
Rocket body
Debris
Shape & HBRUnknown
Radar Cross SectionSmall (<0.1 m²)

Expand to show TLE details & history

TLE from 9 months ago
0 METEOR 2-6 DEB
1 29200U 80073F   24100.85682443  .00033603  00000-0  51694-2 0  9990
2 29200  81.1842 299.2828 0023100 346.0166  14.0396 14.73151719943537
Epoch: 2024-04-09T20:33Z
Definitive object data (Epoch: 2024-04-09T20:33:49.63Z)
Latitude-0.0001°
Longitude152.24975°
Altitude638.254 km
Speed7.547 km/s
True Right ascension19h 57m 07s
True Declination0° 00' 00"
Sunlit
Object was in daylight at TLE epoch
Visualization TLE readout
Latitude30.46954°
Longitude40.29895°
Altitude586.589 km
Speed7.569 km/s
Apparent Right ascension14h 31m 11s
Apparent Declination-22° 35' 07"
Sunlit
Object is in full shadow
Visualization observer readout
Local Sidereal Time11:57:24
Azimuth142.882° SSE
Elevation17.951°
Doppler factor1
Orbital elements
Apogee altitude664.348 km
Perigee altitude631.887 km
Semi-major axis7,026.255 km
Eccentricity0.00231
Inclination81.1842°
RAAN299.2828°
Arg. of periapsis346.0166°
True anomaly14.104°
Mean anomaly14.0396°
Eccentric anomaly14.07178°
Mean motion3.68517 °/min
BSTAR0.0051694
Orbital period97.69 mins
Loading maneuver chart data...
Loading historical data...
Loading historical data...
Loading historical data...
Loading historical data...
Loading historical data...
Loading historical data...
Loading historical data...

METEOR 2-6 DEB Visibility forecast

Observer location: undefined°, undefined

Span
Click to sort rows by Start time (UTC) header in descending order
Start Az.
Max El. time (UTC)
Max El. Az.
Max El.
End time (UTC)
End Az.
4 mins2024-12-27 00:55:51.784Z114.523° SE2024-12-27 00:56:51.784Z96.524° ESE18.525°2024-12-27 00:59:51.784Z47.241° ENE
6 mins2024-12-27 02:31:51.784Z235.948° WSW2024-12-27 02:33:51.784Z275.766° WNW26.44°2024-12-27 02:37:51.784Z347.073° N
|